Home > Weather > Port St. Lucie > Past weeks

Flag for USA Past Weather in Port St. Lucie, Florida, USA — Yesterday and Last 2 Weeks

Now
90 °F

Scattered clouds.


Feels Like: 103 °F
Forecast: 75 / 89 °F
Wind: 10 mph from Southeast

Location: Witham Field Airport

Current Time: Jun 24, 2016 at 4:28:44 PM

Latest Report: Jun 24, 2016 at 3:47 PM


Visibility: 7 mi

Pressure: 30.09 "Hg

Humidity: 67%

Dew Point: 77 °F

Location of Port St. LucieLocation

Past Weather in Port St. Lucie — Graph

°F

Port St. Lucie Temperature Yesterday

Maximum temperature yesterday: 90 °F (at 11:47 AM)
Minimum temperature yesterday: 79 °F (at 3:35 AM)
Average temperature yesterday: 83 °F

High & Low Weather Summary for the Past Weeks

 TemperatureHumidityPressure
High93 °F (Jun 14, 1:47 PM)100% (Jun 11, 5:15 AM)30.19 "Hg (Jun 11, 5:15 AM)
Low73 °F (Jun 19, 5:35 AM)13% (Jun 15, 1:47 PM)29.92 "Hg (Jun 17, 5:47 PM)
Average81 °F80%30.07 "Hg
* Reported Jun 9 2:47 PM — Jun 24 2:47 PM, Port St. Lucie, Weather by CustomWeather, © 2016

Note: Actual official high and low records may vary slightly from our data, if they occured in-between our weather recording intervals... More about our weather records

Advertising

Port St. Lucie Weather History for the Previous 24 Hours

Scroll right to see more
 ConditionsComfort  
Time TempWeatherWind HumidityBarometerVisibility
2:47 PM
Fri, Jun 24
90 °FPartly sunny.7 mph63%30.11 "Hg7 mi
1:47 PM82 °FScattered showers. Broken clouds.12 mph84%30.13 "Hg7 mi
12:47 PM81 °FRain. Cloudy.9 mph84%30.16 "Hg3 mi
11:47 AM86 °FBroken clouds.10 mph70%30.14 "Hg7 mi
10:47 AM90 °FScattered clouds.7 mph71%30.14 "Hg7 mi
9:47 AM86 °FScattered clouds.3 mph75%30.14 "Hg7 mi
8:47 AM84 °FScattered showers. Passing clouds.No wind79%30.13 "Hg7 mi
7:47 AM82 °FScattered showers. Passing clouds.No wind84%30.11 "Hg7 mi
6:47 AM81 °FClear.No wind89%30.10 "Hg7 mi
6:35 AM79 °FPassing clouds.N/A94%30.10 "Hg10 mi
6:15 AM79 °FPassing clouds.No wind94%30.10 "Hg10 mi
5:55 AM79 °FClear.3 mph89%30.09 "Hg10 mi
5:35 AM79 °FClear.No wind94%30.09 "Hg10 mi
5:15 AM79 °FClear.No wind89%30.09 "Hg10 mi
4:55 AM79 °FClear.No wind94%30.09 "Hg10 mi
4:35 AM79 °FClear.3 mph94%30.09 "Hg10 mi
4:15 AM81 °FClear.3 mph89%30.09 "Hg10 mi
3:55 AM79 °FClear.No wind94%30.10 "Hg10 mi
3:15 AM79 °FClear.3 mph89%30.10 "Hg10 mi
2:55 AM81 °FPassing clouds.No wind84%30.10 "Hg10 mi
2:35 AM81 °FPassing clouds.No wind84%30.10 "Hg10 mi
2:15 AM81 °FClear.No wind84%30.10 "Hg10 mi
1:55 AM81 °FClear.No wind84%30.11 "Hg10 mi
1:35 AM81 °FClear.No wind84%30.11 "Hg10 mi
1:15 AM82 °FClear.No wind79%30.11 "Hg10 mi
12:55 AM82 °FClear.No wind79%30.11 "Hg10 mi
12:35 AM82 °FClear.5 mph79%30.11 "Hg10 mi
12:15 AM82 °FClear.3 mph84%30.11 "Hg10 mi
11:55 PM
Thu, Jun 23
82 °FClear.No wind84%30.11 "Hg10 mi
11:15 PM82 °FClear.3 mph84%30.10 "Hg10 mi
10:55 PM82 °FClear.No wind84%30.10 "Hg10 mi
10:35 PM82 °FClear.3 mph84%30.10 "Hg10 mi
10:15 PM82 °FClear.6 mph84%30.09 "Hg10 mi
8:47 PM86 °FScattered clouds.8 mph75%30.09 "Hg7 mi
6:47 PM86 °FScattered clouds.8 mph75%30.09 "Hg7 mi
5:47 PM86 °FScattered clouds.7 mph75%30.09 "Hg7 mi
4:47 PM90 °FScattered showers. Scattered clouds.12 mph67%30.10 "Hg7 mi
Weather by CustomWeather, © 2016

See weather overviewHow to use our weather pages